This demonstration page uses our WeatherBlox Daily Observations layout. Learn more.

Left ArrowRight Arrow

39.01783, -85.05884

Hourly Observations for July 22, 2021

Temp ( °F °C ) Dew Point ( °F °C ) Humidity (%) Winds ( mph kmh ) Pressure ( in mb ) Visibility ( mi km ) Precip ( " mm )
12:52 am 00:52 Mostly Clear 70 21.1 58 14.4 66 66 E 12 19 30.14 1021 10 16 N/A
1:52 am 01:52 Mostly Clear 68 20 58 14.4 70 70 E 8 13 30.15 1021 9 14 N/A
2:52 am 02:52 Mostly Clear 67 19.4 57 13.9 71 71 E 9 15 30.15 1021 10 16 N/A
3:52 am 03:52 Clear 65 18.3 57 13.9 76 76 E 5 7 30.15 1021 10 16 N/A
4:52 am 04:52 Clear 64 17.8 57 13.9 78 78 E 7 11 30.16 1021 10 16 N/A
5:52 am 05:52 Mostly Clear 63 17.2 57 13.9 81 81 E 6 9 30.16 1022 10 16 N/A
6:52 am 06:52 Mostly Sunny 65 18.3 56 13.3 73 73 N N/A 30.18 1022 7 11 N/A
7:52 am 07:52 Mostly Sunny 66 18.9 58 14.4 75 75 E 3 6 30.19 1022 9 14 N/A
8:52 am 08:52 Mostly Sunny 69 20.6 58 14.4 68 68 E 5 7 30.21 1023 10 16 N/A
9:52 am 09:52 Sunny 71 21.7 58 14.4 63 63 VRB 3 6 30.22 1023 10 16 N/A
10:52 am 10:52 Mostly Sunny 74 23.3 54 12.2 50 50 NE 6 9 30.21 1023 10 16 N/A
11:52 am 11:52 Mostly Cloudy 76 24.4 56 13.3 50 50 NNE 6 9 30.21 1023 9 14 N/A
12:52 pm 12:52 Mostly Cloudy 78 25.6 56 13.3 47 47 NE 7 11 30.20 1023 10 16 N/A
1:52 pm 13:52 Mostly Cloudy 80 26.7 57 13.9 45 45 NNW 6 9 30.19 1022 10 16 N/A
2:52 pm 14:52 Partly Cloudy 81 27.2 56 13.3 42 42 ENE 8 13 30.17 1022 10 16 N/A
3:52 pm 15:52 Mostly Sunny 81 27.2 54 12.2 39 39 NNE 6 9 30.16 1021 10 16 N/A
4:52 pm 16:52 Mostly Sunny 82 27.8 52 11.1 35 35 NE 9 15 30.16 1021 10 16 N/A
5:52 pm 17:52 Partly Cloudy 82 27.8 52 11.1 35 35 N N/A 30.15 1021 10 16 N/A
6:52 pm 18:52 Mostly Cloudy 80 26.7 55 12.8 42 42 VRB 3 6 30.16 1021 10 16 N/A
7:52 pm 19:52 Mostly Cloudy 78 25.6 58 14.4 50 50 NNW 7 11 30.16 1021 10 16 N/A
8:52 pm 20:52 Mostly Cloudy 75 23.9 56 13.3 52 52 ESE 5 7 30.16 1022 10 16 N/A
9:52 pm 21:52 Cloudy 73 22.8 57 13.9 57 57 ESE 6 9 30.18 1022 10 16 N/A
10:52 pm 22:52 Mostly Cloudy 73 22.8 56 13.3 55 55 ESE 6 9 30.18 1022 10 16 N/A
11:52 pm 23:52 Partly Cloudy 71 21.7 56 13.3 59 59 ESE 6 9 30.17 1022 10 16 N/A

Powered by AerisWeather